Data supplied by UK-AIR on 5/4/2008
All Data GMT hour ending 
Status: R =Ratified P=Provisional,P*=As supplied
,,Camden Kerbside,,,,,,,,,,,,,,,,,,,,,,,
Date,time,"PM10 particulate matter (Hourly measured)",status,unit,"Nitric oxide",status,unit,"Nitrogen dioxide",status,unit,"Nitrogen oxides as nitrogen dioxide",status,unit
 
01-01-2000,01:00,49,R,ugm-3 (GRAV EQ),21,R,ugm-3,48,R,ugm-3,80,R,ugm-3
01-01-2000,02:00,66,R,ugm-3 (GRAV EQ),33,R,ugm-3,55,R,ugm-3,105,R,ugm-3
01-01-2000,03:00,68,R,ugm-3 (GRAV EQ),39,R,ugm-3,55,R,ugm-3,115,R,ugm-3
01-01-2000,04:00,68,R,ugm-3 (GRAV EQ),49,R,ugm-3,55,R,ugm-3,130,R,ugm-3
01-01-2000,05:00,43,R,ugm-3 (GRAV EQ),23,R,ugm-3,53,R,ugm-3,88,R,ugm-3
01-01-2000,06:00,22,R,ugm-3 (GRAV EQ),14,R,ugm-3,48,R,ugm-3,69,R,ugm-3
01-01-2000,07:00,22,R,ugm-3 (GRAV EQ),33,R,ugm-3,53,R,ugm-3,103,R,ugm-3
01-01-2000,08:00,25,R,ugm-3 (GRAV EQ),48,R,ugm-3,59,R,ugm-3,132,R,ugm-3
01-01-2000,09:00,25,R,ugm-3 (GRAV EQ),74,R,ugm-3,61,R,ugm-3,174,R,ugm-3
01-01-2000,10:00,23,R,ugm-3 (GRAV EQ),76,R,ugm-3,63,R,ugm-3,180,R,ugm-3
01-01-2000,11:00,26,R,ugm-3 (GRAV EQ),81,R,ugm-3,55,R,ugm-3,180,R,ugm-3
01-01-2000,12:00,20,R,ugm-3 (GRAV EQ),73,R,ugm-3,55,R,ugm-3,166,R,ugm-3
01-01-2000,13:00,22,R,ugm-3 (GRAV EQ),131,R,ugm-3,69,R,ugm-3,269,R,ugm-3
01-01-2000,14:00,31,R,ugm-3 (GRAV EQ),93,R,ugm-3,73,R,ugm-3,214,R,ugm-3
01-01-2000,15:00,31,R,ugm-3 (GRAV EQ),118,R,ugm-3,71,R,ugm-3,250,R,ugm-3
01-01-2000,16:00,30,R,ugm-3 (GRAV EQ),96,R,ugm-3,73,R,ugm-3,220,R,ugm-3
01-01-2000,17:00,26,R,ugm-3 (GRAV EQ),74,R,ugm-3,63,R,ugm-3,176,R,ugm-3
01-01-2000,18:00,26,R,ugm-3 (GRAV EQ),98,R,ugm-3,74,R,ugm-3,223,R,ugm-3
01-01-2000,19:00,29,R,ugm-3 (GRAV EQ),120,R,ugm-3,76,R,ugm-3,260,R,ugm-3
01-01-2000,20:00,33,R,ugm-3 (GRAV EQ),125,R,ugm-3,80,R,ugm-3,271,R,ugm-3
01-01-2000,21:00,23,R,ugm-3 (GRAV EQ),90,R,ugm-3,78,R,ugm-3,216,R,ugm-3
01-01-2000,22:00,27,R,ugm-3 (GRAV EQ),111,R,ugm-3,82,R,ugm-3,252,R,ugm-3
01-01-2000,23:00,25,R,ugm-3 (GRAV EQ),88,R,ugm-3,78,R,ugm-3,212,R,ugm-3
01-01-2000,24:00,25,R,ugm-3 (GRAV EQ),73,R,ugm-3,71,R,ugm-3,181,R,ugm-3
02-01-2000,01:00,20,R,ugm-3 (GRAV EQ),48,R,ugm-3,61,R,ugm-3,134,R,ugm-3
02-01-2000,02:00,14,R,ugm-3 (GRAV EQ),29,R,ugm-3,50,R,ugm-3,94,R,ugm-3
02-01-2000,03:00,12,R,ugm-3 (GRAV EQ),13,R,ugm-3,40,R,ugm-3,59,R,ugm-3
02-01-2000,04:00,10,R,ugm-3 (GRAV EQ),8,R,ugm-3,34,R,ugm-3,46,R,ugm-3
02-01-2000,05:00,10,R,ugm-3 (GRAV EQ),11,R,ugm-3,36,R,ugm-3,53,R,ugm-3
02-01-2000,06:00,9,R,ugm-3 (GRAV EQ),8,R,ugm-3,36,R,ugm-3,48,R,ugm-3
02-01-2000,07:00,10,R,ugm-3 (GRAV EQ),15,R,ugm-3,46,R,ugm-3,69,R,ugm-3
02-01-2000,08:00,8,R,ugm-3 (GRAV EQ),16,R,ugm-3,55,R,ugm-3,80,R,ugm-3
02-01-2000,09:00,8,R,ugm-3 (GRAV EQ),15,R,ugm-3,57,R,ugm-3,80,R,ugm-3
02-01-2000,10:00,10,R,ugm-3 (GRAV EQ),19,R,ugm-3,48,R,ugm-3,76,R,ugm-3
02-01-2000,11:00,12,R,ugm-3 (GRAV EQ),20,R,ugm-3,46,R,ugm-3,76,R,ugm-3
02-01-2000,12:00,13,R,ugm-3 (GRAV EQ),38,R,ugm-3,48,R,ugm-3,105,R,ugm-3
02-01-2000,13:00,23,R,ugm-3 (GRAV EQ),105,R,ugm-3,78,R,ugm-3,239,R,ugm-3
02-01-2000,14:00,29,R,ugm-3 (GRAV EQ),103,R,ugm-3,76,R,ugm-3,233,R,ugm-3
02-01-2000,15:00,27,R,ugm-3 (GRAV EQ),88,R,ugm-3,69,R,ugm-3,202,R,ugm-3
02-01-2000,16:00,29,R,ugm-3 (GRAV EQ),109,R,ugm-3,78,R,ugm-3,244,R,ugm-3
02-01-2000,17:00,26,R,ugm-3 (GRAV EQ),95,R,ugm-3,74,R,ugm-3,220,R,ugm-3
02-01-2000,18:00,23,R,ugm-3 (GRAV EQ),104,R,ugm-3,78,R,ugm-3,237,R,ugm-3
02-01-2000,19:00,27,R,ugm-3 (GRAV EQ),89,R,ugm-3,73,R,ugm-3,208,R,ugm-3
02-01-2000,20:00,22,R,ugm-3 (GRAV EQ),64,R,ugm-3,59,R,ugm-3,157,R,ugm-3
02-01-2000,21:00,20,R,ugm-3 (GRAV EQ),69,R,ugm-3,59,R,ugm-3,164,R,ugm-3
02-01-2000,22:00,17,R,ugm-3 (GRAV EQ),45,R,ugm-3,50,R,ugm-3,118,R,ugm-3
02-01-2000,23:00,10,R,ugm-3 (GRAV EQ),30,R,ugm-3,42,R,ugm-3,88,R,ugm-3
02-01-2000,24:00,10,R,ugm-3 (GRAV EQ),28,R,ugm-3,38,R,ugm-3,80,R,ugm-3
03-01-2000,01:00,7,R,ugm-3 (GRAV EQ),16,R,ugm-3,27,R,ugm-3,52,R,ugm-3
03-01-2000,02:00,7,R,ugm-3 (GRAV EQ),10,R,ugm-3,21,R,ugm-3,36,R,ugm-3
03-01-2000,03:00,12,R,ugm-3 (GRAV EQ),8,R,ugm-3,17,R,ugm-3,29,R,ugm-3
03-01-2000,04:00,13,R,ugm-3 (GRAV EQ),4,R,ugm-3,13,R,ugm-3,19,R,ugm-3
03-01-2000,05:00,12,R,ugm-3 (GRAV EQ),4,R,ugm-3,15,R,ugm-3,21,R,ugm-3
03-01-2000,06:00,10,R,ugm-3 (GRAV EQ),10,R,ugm-3,19,R,ugm-3,34,R,ugm-3
03-01-2000,07:00,10,R,ugm-3 (GRAV EQ),13,R,ugm-3,29,R,ugm-3,48,R,ugm-3
03-01-2000,08:00,10,R,ugm-3 (GRAV EQ),20,R,ugm-3,32,R,ugm-3,63,R,ugm-3
03-01-2000,09:00,10,R,ugm-3 (GRAV EQ),24,R,ugm-3,36,R,ugm-3,73,R,ugm-3
03-01-2000,10:00,10,R,ugm-3 (GRAV EQ),29,R,ugm-3,40,R,ugm-3,84,R,ugm-3
03-01-2000,11:00,12,R,ugm-3 (GRAV EQ),39,R,ugm-3,44,R,ugm-3,103,R,ugm-3
03-01-2000,12:00,12,R,ugm-3 (GRAV EQ),48,R,ugm-3,50,R,ugm-3,122,R,ugm-3
03-01-2000,13:00,14,R,ugm-3 (GRAV EQ),66,R,ugm-3,57,R,ugm-3,159,R,ugm-3
03-01-2000,14:00,13,R,ugm-3 (GRAV EQ),59,R,ugm-3,55,R,ugm-3,145,R,ugm-3
03-01-2000,15:00,13,R,ugm-3 (GRAV EQ),60,R,ugm-3,55,R,ugm-3,147,R,ugm-3
03-01-2000,16:00,12,R,ugm-3 (GRAV EQ),53,R,ugm-3,57,R,ugm-3,138,R,ugm-3
03-01-2000,17:00,13,R,ugm-3 (GRAV EQ),90,R,ugm-3,69,R,ugm-3,206,R,ugm-3
03-01-2000,18:00,23,R,ugm-3 (GRAV EQ),148,R,ugm-3,86,R,ugm-3,311,R,ugm-3
03-01-2000,19:00,29,R,ugm-3 (GRAV EQ),206,R,ugm-3,94,R,ugm-3,409,R,ugm-3
03-01-2000,20:00,26,R,ugm-3 (GRAV EQ),171,R,ugm-3,86,R,ugm-3,348,R,ugm-3
03-01-2000,21:00,21,R,ugm-3 (GRAV EQ),193,R,ugm-3,84,R,ugm-3,378,R,ugm-3
03-01-2000,22:00,17,R,ugm-3 (GRAV EQ),118,R,ugm-3,71,R,ugm-3,250,R,ugm-3
03-01-2000,23:00,13,R,ugm-3 (GRAV EQ),90,R,ugm-3,78,R,ugm-3,216,R,ugm-3
03-01-2000,24:00,16,R,ugm-3 (GRAV EQ),71,R,ugm-3,80,R,ugm-3,189,R,ugm-3
04-01-2000,01:00,14,R,ugm-3 (GRAV EQ),91,R,ugm-3,86,R,ugm-3,225,R,ugm-3
04-01-2000,02:00,13,R,ugm-3 (GRAV EQ),49,R,ugm-3,74,R,ugm-3,149,R,ugm-3
04-01-2000,03:00,12,R,ugm-3 (GRAV EQ),34,R,ugm-3,63,R,ugm-3,115,R,ugm-3
04-01-2000,04:00,10,R,ugm-3 (GRAV EQ),20,R,ugm-3,57,R,ugm-3,88,R,ugm-3
04-01-2000,05:00,10,R,ugm-3 (GRAV EQ),13,R,ugm-3,63,R,ugm-3,82,R,ugm-3
04-01-2000,06:00,10,R,ugm-3 (GRAV EQ),35,R,ugm-3,71,R,ugm-3,124,R,ugm-3
04-01-2000,07:00,20,R,ugm-3 (GRAV EQ),85,R,ugm-3,69,R,ugm-3,199,R,ugm-3
04-01-2000,08:00,23,R,ugm-3 (GRAV EQ),113,R,ugm-3,76,R,ugm-3,248,R,ugm-3
04-01-2000,09:00,26,R,ugm-3 (GRAV EQ),206,R,ugm-3,84,R,ugm-3,399,R,ugm-3
04-01-2000,10:00,30,R,ugm-3 (GRAV EQ),196,R,ugm-3,84,R,ugm-3,384,R,ugm-3
04-01-2000,11:00,23,R,ugm-3 (GRAV EQ),111,R,ugm-3,76,R,ugm-3,246,R,ugm-3
04-01-2000,12:00,17,R,ugm-3 (GRAV EQ),76,R,ugm-3,71,R,ugm-3,187,R,ugm-3
04-01-2000,13:00,21,R,ugm-3 (GRAV EQ),89,R,ugm-3,71,R,ugm-3,206,R,ugm-3
04-01-2000,14:00,,,,,,,,,,,,
04-01-2000,15:00,14,R,ugm-3 (GRAV EQ),76,R,ugm-3,67,R,ugm-3,183,R,ugm-3
04-01-2000,16:00,14,R,ugm-3 (GRAV EQ),36,R,ugm-3,61,R,ugm-3,117,R,ugm-3
04-01-2000,17:00,8,R,ugm-3 (GRAV EQ),21,R,ugm-3,48,R,ugm-3,80,R,ugm-3
04-01-2000,18:00,16,R,ugm-3 (GRAV EQ),43,R,ugm-3,71,R,ugm-3,136,R,ugm-3
04-01-2000,19:00,22,R,ugm-3 (GRAV EQ),61,R,ugm-3,80,R,ugm-3,174,R,ugm-3
04-01-2000,20:00,25,R,ugm-3 (GRAV EQ),48,R,ugm-3,78,R,ugm-3,151,R,ugm-3
04-01-2000,21:00,25,R,ugm-3 (GRAV EQ),45,R,ugm-3,76,R,ugm-3,145,R,ugm-3
04-01-2000,22:00,27,R,ugm-3 (GRAV EQ),63,R,ugm-3,80,R,ugm-3,176,R,ugm-3
04-01-2000,23:00,27,R,ugm-3 (GRAV EQ),68,R,ugm-3,76,R,ugm-3,180,R,ugm-3
04-01-2000,24:00,27,R,ugm-3 (GRAV EQ),76,R,ugm-3,73,R,ugm-3,189,R,ugm-3
05-01-2000,01:00,26,R,ugm-3 (GRAV EQ),51,R,ugm-3,63,R,ugm-3,141,R,ugm-3
05-01-2000,02:00,22,R,ugm-3 (GRAV EQ),33,R,ugm-3,57,R,ugm-3,107,R,ugm-3
05-01-2000,03:00,21,R,ugm-3 (GRAV EQ),25,R,ugm-3,57,R,ugm-3,96,R,ugm-3
05-01-2000,04:00,22,R,ugm-3 (GRAV EQ),31,R,ugm-3,61,R,ugm-3,109,R,ugm-3
05-01-2000,05:00,23,R,ugm-3 (GRAV EQ),19,R,ugm-3,52,R,ugm-3,80,R,ugm-3
05-01-2000,06:00,27,R,ugm-3 (GRAV EQ),33,R,ugm-3,63,R,ugm-3,113,R,ugm-3
05-01-2000,07:00,30,R,ugm-3 (GRAV EQ),78,R,ugm-3,76,R,ugm-3,195,R,ugm-3
05-01-2000,08:00,33,R,ugm-3 (GRAV EQ),136,R,ugm-3,94,R,ugm-3,302,R,ugm-3
05-01-2000,09:00,36,R,ugm-3 (GRAV EQ),123,R,ugm-3,88,R,ugm-3,275,R,ugm-3
05-01-2000,10:00,40,R,ugm-3 (GRAV EQ),110,R,ugm-3,78,R,ugm-3,246,R,ugm-3
05-01-2000,11:00,40,R,ugm-3 (GRAV EQ),88,R,ugm-3,69,R,ugm-3,202,R,ugm-3
05-01-2000,12:00,38,R,ugm-3 (GRAV EQ),75,R,ugm-3,65,R,ugm-3,180,R,ugm-3
05-01-2000,13:00,38,R,ugm-3 (GRAV EQ),74,R,ugm-3,61,R,ugm-3,174,R,ugm-3
05-01-2000,14:00,34,R,ugm-3 (GRAV EQ),63,R,ugm-3,57,R,ugm-3,153,R,ugm-3
05-01-2000,15:00,30,R,ugm-3 (GRAV EQ),60,R,ugm-3,55,R,ugm-3,147,R,ugm-3
05-01-2000,16:00,33,R,ugm-3 (GRAV EQ),79,R,ugm-3,65,R,ugm-3,185,R,ugm-3
05-01-2000,17:00,31,R,ugm-3 (GRAV EQ),70,R,ugm-3,67,R,ugm-3,174,R,ugm-3
05-01-2000,18:00,31,R,ugm-3 (GRAV EQ),58,R,ugm-3,59,R,ugm-3,147,R,ugm-3
05-01-2000,19:00,33,R,ugm-3 (GRAV EQ),56,R,ugm-3,57,R,ugm-3,143,R,ugm-3
05-01-2000,20:00,29,R,ugm-3 (GRAV EQ),40,R,ugm-3,50,R,ugm-3,111,R,ugm-3
05-01-2000,21:00,30,R,ugm-3 (GRAV EQ),35,R,ugm-3,46,R,ugm-3,99,R,ugm-3
05-01-2000,22:00,27,R,ugm-3 (GRAV EQ),26,R,ugm-3,36,R,ugm-3,76,R,ugm-3
05-01-2000,23:00,25,R,ugm-3 (GRAV EQ),21,R,ugm-3,29,R,ugm-3,61,R,ugm-3
05-01-2000,24:00,22,R,ugm-3 (GRAV EQ),19,R,ugm-3,27,R,ugm-3,55,R,ugm-3
06-01-2000,01:00,22,R,ugm-3 (GRAV EQ),11,R,ugm-3,21,R,ugm-3,38,R,ugm-3
06-01-2000,02:00,22,R,ugm-3 (GRAV EQ),6,R,ugm-3,17,R,ugm-3,27,R,ugm-3
06-01-2000,03:00,23,R,ugm-3 (GRAV EQ),5,R,ugm-3,15,R,ugm-3,23,R,ugm-3
06-01-2000,04:00,25,R,ugm-3 (GRAV EQ),6,R,ugm-3,17,R,ugm-3,27,R,ugm-3
06-01-2000,05:00,21,R,ugm-3 (GRAV EQ),6,R,ugm-3,15,R,ugm-3,25,R,ugm-3
06-01-2000,06:00,12,R,ugm-3 (GRAV EQ),5,R,ugm-3,23,R,ugm-3,31,R,ugm-3
06-01-2000,07:00,12,R,ugm-3 (GRAV EQ),30,R,ugm-3,48,R,ugm-3,94,R,ugm-3
06-01-2000,08:00,23,R,ugm-3 (GRAV EQ),101,R,ugm-3,78,R,ugm-3,233,R,ugm-3
06-01-2000,09:00,25,R,ugm-3 (GRAV EQ),74,R,ugm-3,74,R,ugm-3,187,R,ugm-3
06-01-2000,10:00,29,R,ugm-3 (GRAV EQ),83,R,ugm-3,76,R,ugm-3,202,R,ugm-3
06-01-2000,11:00,36,R,ugm-3 (GRAV EQ),94,R,ugm-3,71,R,ugm-3,214,R,ugm-3
06-01-2000,12:00,33,R,ugm-3 (GRAV EQ),53,R,ugm-3,63,R,ugm-3,143,R,ugm-3
06-01-2000,13:00,36,R,ugm-3 (GRAV EQ),38,R,ugm-3,57,R,ugm-3,115,R,ugm-3
06-01-2000,14:00,36,R,ugm-3 (GRAV EQ),31,R,ugm-3,53,R,ugm-3,101,R,ugm-3
06-01-2000,15:00,36,R,ugm-3 (GRAV EQ),39,R,ugm-3,57,R,ugm-3,117,R,ugm-3
06-01-2000,16:00,39,R,ugm-3 (GRAV EQ),48,R,ugm-3,67,R,ugm-3,139,R,ugm-3
06-01-2000,17:00,34,R,ugm-3 (GRAV EQ),49,R,ugm-3,74,R,ugm-3,149,R,ugm-3
06-01-2000,18:00,42,R,ugm-3 (GRAV EQ),141,R,ugm-3,88,R,ugm-3,304,R,ugm-3
06-01-2000,19:00,36,R,ugm-3 (GRAV EQ),121,R,ugm-3,88,R,ugm-3,273,R,ugm-3
06-01-2000,20:00,36,R,ugm-3 (GRAV EQ),66,R,ugm-3,78,R,ugm-3,180,R,ugm-3
06-01-2000,21:00,35,R,ugm-3 (GRAV EQ),81,R,ugm-3,78,R,ugm-3,202,R,ugm-3
06-01-2000,22:00,38,R,ugm-3 (GRAV EQ),108,R,ugm-3,78,R,ugm-3,243,R,ugm-3
06-01-2000,23:00,36,R,ugm-3 (GRAV EQ),113,R,ugm-3,78,R,ugm-3,250,R,ugm-3
06-01-2000,24:00,33,R,ugm-3 (GRAV EQ),86,R,ugm-3,71,R,ugm-3,202,R,ugm-3
07-01-2000,01:00,29,R,ugm-3 (GRAV EQ),50,R,ugm-3,67,R,ugm-3,143,R,ugm-3
07-01-2000,02:00,25,R,ugm-3 (GRAV EQ),33,R,ugm-3,61,R,ugm-3,111,R,ugm-3
07-01-2000,03:00,23,R,ugm-3 (GRAV EQ),34,R,ugm-3,55,R,ugm-3,107,R,ugm-3
07-01-2000,04:00,26,R,ugm-3 (GRAV EQ),16,R,ugm-3,53,R,ugm-3,78,R,ugm-3
07-01-2000,05:00,23,R,ugm-3 (GRAV EQ),20,R,ugm-3,46,R,ugm-3,76,R,ugm-3
07-01-2000,06:00,26,R,ugm-3 (GRAV EQ),26,R,ugm-3,44,R,ugm-3,84,R,ugm-3
07-01-2000,07:00,31,R,ugm-3 (GRAV EQ),73,R,ugm-3,67,R,ugm-3,178,R,ugm-3
07-01-2000,08:00,42,R,ugm-3 (GRAV EQ),163,R,ugm-3,88,R,ugm-3,336,R,ugm-3
07-01-2000,09:00,42,R,ugm-3 (GRAV EQ),164,R,ugm-3,90,R,ugm-3,340,R,ugm-3
07-01-2000,10:00,48,R,ugm-3 (GRAV EQ),144,R,ugm-3,84,R,ugm-3,304,R,ugm-3
07-01-2000,11:00,44,R,ugm-3 (GRAV EQ),95,R,ugm-3,65,R,ugm-3,210,R,ugm-3
07-01-2000,12:00,38,R,ugm-3 (GRAV EQ),68,R,ugm-3,61,R,ugm-3,164,R,ugm-3
07-01-2000,13:00,38,R,ugm-3 (GRAV EQ),78,R,ugm-3,65,R,ugm-3,183,R,ugm-3
07-01-2000,14:00,36,R,ugm-3 (GRAV EQ),71,R,ugm-3,63,R,ugm-3,172,R,ugm-3
07-01-2000,15:00,38,R,ugm-3 (GRAV EQ),71,R,ugm-3,61,R,ugm-3,170,R,ugm-3
07-01-2000,16:00,38,R,ugm-3 (GRAV EQ),75,R,ugm-3,67,R,ugm-3,181,R,ugm-3
07-01-2000,17:00,38,R,ugm-3 (GRAV EQ),64,R,ugm-3,65,R,ugm-3,162,R,ugm-3
07-01-2000,18:00,36,R,ugm-3 (GRAV EQ),64,R,ugm-3,63,R,ugm-3,160,R,ugm-3
07-01-2000,19:00,36,R,ugm-3 (GRAV EQ),71,R,ugm-3,65,R,ugm-3,174,R,ugm-3
07-01-2000,20:00,35,R,ugm-3 (GRAV EQ),61,R,ugm-3,57,R,ugm-3,151,R,ugm-3
07-01-2000,21:00,33,R,ugm-3 (GRAV EQ),44,R,ugm-3,52,R,ugm-3,118,R,ugm-3
07-01-2000,22:00,34,R,ugm-3 (GRAV EQ),54,R,ugm-3,50,R,ugm-3,132,R,ugm-3
07-01-2000,23:00,33,R,ugm-3 (GRAV EQ),39,R,ugm-3,46,R,ugm-3,105,R,ugm-3
07-01-2000,24:00,33,R,ugm-3 (GRAV EQ),39,R,ugm-3,42,R,ugm-3,101,R,ugm-3
08-01-2000,01:00,30,R,ugm-3 (GRAV EQ),29,R,ugm-3,38,R,ugm-3,82,R,ugm-3
08-01-2000,02:00,17,R,ugm-3 (GRAV EQ),18,R,ugm-3,31,R,ugm-3,57,R,ugm-3
08-01-2000,03:00,8,R,ugm-3 (GRAV EQ),15,R,ugm-3,27,R,ugm-3,50,R,ugm-3
08-01-2000,04:00,7,R,ugm-3 (GRAV EQ),10,R,ugm-3,27,R,ugm-3,42,R,ugm-3
08-01-2000,05:00,8,R,ugm-3 (GRAV EQ),5,R,ugm-3,25,R,ugm-3,32,R,ugm-3
08-01-2000,06:00,13,R,ugm-3 (GRAV EQ),10,R,ugm-3,42,R,ugm-3,57,R,ugm-3
08-01-2000,07:00,14,R,ugm-3 (GRAV EQ),13,R,ugm-3,50,R,ugm-3,69,R,ugm-3
08-01-2000,08:00,20,R,ugm-3 (GRAV EQ),26,R,ugm-3,65,R,ugm-3,105,R,ugm-3
08-01-2000,09:00,26,R,ugm-3 (GRAV EQ),58,R,ugm-3,74,R,ugm-3,162,R,ugm-3
08-01-2000,10:00,29,R,ugm-3 (GRAV EQ),63,R,ugm-3,73,R,ugm-3,168,R,ugm-3
08-01-2000,11:00,35,R,ugm-3 (GRAV EQ),76,R,ugm-3,67,R,ugm-3,183,R,ugm-3
08-01-2000,12:00,39,R,ugm-3 (GRAV EQ),68,R,ugm-3,65,R,ugm-3,168,R,ugm-3
08-01-2000,13:00,38,R,ugm-3 (GRAV EQ),51,R,ugm-3,55,R,ugm-3,134,R,ugm-3
08-01-2000,14:00,31,R,ugm-3 (GRAV EQ),34,R,ugm-3,46,R,ugm-3,97,R,ugm-3
08-01-2000,15:00,31,R,ugm-3 (GRAV EQ),39,R,ugm-3,53,R,ugm-3,113,R,ugm-3
08-01-2000,16:00,30,R,ugm-3 (GRAV EQ),34,R,ugm-3,53,R,ugm-3,105,R,ugm-3
08-01-2000,17:00,34,R,ugm-3 (GRAV EQ),73,R,ugm-3,74,R,ugm-3,185,R,ugm-3
08-01-2000,18:00,34,R,ugm-3 (GRAV EQ),78,R,ugm-3,82,R,ugm-3,201,R,ugm-3
08-01-2000,19:00,42,R,ugm-3 (GRAV EQ),149,R,ugm-3,84,R,ugm-3,311,R,ugm-3
08-01-2000,20:00,38,R,ugm-3 (GRAV EQ),89,R,ugm-3,80,R,ugm-3,216,R,ugm-3
08-01-2000,21:00,39,R,ugm-3 (GRAV EQ),124,R,ugm-3,82,R,ugm-3,271,R,ugm-3
08-01-2000,22:00,35,R,ugm-3 (GRAV EQ),73,R,ugm-3,74,R,ugm-3,185,R,ugm-3
08-01-2000,23:00,25,R,ugm-3 (GRAV EQ),41,R,ugm-3,71,R,ugm-3,134,R,ugm-3
08-01-2000,24:00,26,R,ugm-3 (GRAV EQ),78,R,ugm-3,74,R,ugm-3,193,R,ugm-3
09-01-2000,01:00,23,R,ugm-3 (GRAV EQ),44,R,ugm-3,65,R,ugm-3,132,R,ugm-3
09-01-2000,02:00,23,R,ugm-3 (GRAV EQ),31,R,ugm-3,59,R,ugm-3,107,R,ugm-3
09-01-2000,03:00,23,R,ugm-3 (GRAV EQ),30,R,ugm-3,57,R,ugm-3,103,R,ugm-3
09-01-2000,04:00,21,R,ugm-3 (GRAV EQ),34,R,ugm-3,59,R,ugm-3,111,R,ugm-3
09-01-2000,05:00,21,R,ugm-3 (GRAV EQ),35,R,ugm-3,59,R,ugm-3,113,R,ugm-3
09-01-2000,06:00,18,R,ugm-3 (GRAV EQ),29,R,ugm-3,57,R,ugm-3,101,R,ugm-3
09-01-2000,07:00,20,R,ugm-3 (GRAV EQ),48,R,ugm-3,61,R,ugm-3,134,R,ugm-3
09-01-2000,08:00,21,R,ugm-3 (GRAV EQ),70,R,ugm-3,67,R,ugm-3,174,R,ugm-3
09-01-2000,09:00,25,R,ugm-3 (GRAV EQ),109,R,ugm-3,73,R,ugm-3,239,R,ugm-3
09-01-2000,10:00,33,R,ugm-3 (GRAV EQ),118,R,ugm-3,73,R,ugm-3,252,R,ugm-3
09-01-2000,11:00,34,R,ugm-3 (GRAV EQ),93,R,ugm-3,67,R,ugm-3,208,R,ugm-3
09-01-2000,12:00,27,R,ugm-3 (GRAV EQ),71,R,ugm-3,61,R,ugm-3,170,R,ugm-3
09-01-2000,13:00,31,R,ugm-3 (GRAV EQ),93,R,ugm-3,57,R,ugm-3,199,R,ugm-3
09-01-2000,14:00,35,R,ugm-3 (GRAV EQ),104,R,ugm-3,63,R,ugm-3,222,R,ugm-3
09-01-2000,15:00,31,R,ugm-3 (GRAV EQ),95,R,ugm-3,55,R,ugm-3,201,R,ugm-3
09-01-2000,16:00,48,R,ugm-3 (GRAV EQ),238,R,ugm-3,88,R,ugm-3,451,R,ugm-3
09-01-2000,17:00,51,R,ugm-3 (GRAV EQ),221,R,ugm-3,94,R,ugm-3,432,R,ugm-3
09-01-2000,18:00,42,R,ugm-3 (GRAV EQ),121,R,ugm-3,84,R,ugm-3,269,R,ugm-3
09-01-2000,19:00,44,R,ugm-3 (GRAV EQ),138,R,ugm-3,84,R,ugm-3,294,R,ugm-3
09-01-2000,20:00,46,R,ugm-3 (GRAV EQ),195,R,ugm-3,90,R,ugm-3,388,R,ugm-3
09-01-2000,21:00,46,R,ugm-3 (GRAV EQ),184,R,ugm-3,90,R,ugm-3,371,R,ugm-3
09-01-2000,22:00,57,R,ugm-3 (GRAV EQ),343,R,ugm-3,99,R,ugm-3,623,R,ugm-3
09-01-2000,23:00,52,R,ugm-3 (GRAV EQ),258,R,ugm-3,94,R,ugm-3,487,R,ugm-3
09-01-2000,24:00,51,R,ugm-3 (GRAV EQ),265,R,ugm-3,92,R,ugm-3,497,R,ugm-3
10-01-2000,01:00,61,R,ugm-3 (GRAV EQ),313,R,ugm-3,92,R,ugm-3,569,R,ugm-3
10-01-2000,02:00,59,R,ugm-3 (GRAV EQ),290,R,ugm-3,90,R,ugm-3,533,R,ugm-3
10-01-2000,03:00,59,R,ugm-3 (GRAV EQ),298,R,ugm-3,92,R,ugm-3,546,R,ugm-3
10-01-2000,04:00,55,R,ugm-3 (GRAV EQ),233,R,ugm-3,78,R,ugm-3,434,R,ugm-3
10-01-2000,05:00,48,R,ugm-3 (GRAV EQ),180,R,ugm-3,73,R,ugm-3,348,R,ugm-3
10-01-2000,06:00,44,R,ugm-3 (GRAV EQ),259,R,ugm-3,82,R,ugm-3,478,R,ugm-3
10-01-2000,07:00,61,R,ugm-3 (GRAV EQ),456,R,ugm-3,111,R,ugm-3,808,R,ugm-3
10-01-2000,08:00,78,R,ugm-3 (GRAV EQ),621,R,ugm-3,141,R,ugm-3,1091,R,ugm-3
10-01-2000,09:00,78,R,ugm-3 (GRAV EQ),656,R,ugm-3,157,R,ugm-3,1159,R,ugm-3
10-01-2000,10:00,79,R,ugm-3 (GRAV EQ),525,R,ugm-3,130,R,ugm-3,932,R,ugm-3
10-01-2000,11:00,64,R,ugm-3 (GRAV EQ),350,R,ugm-3,113,R,ugm-3,647,R,ugm-3
10-01-2000,12:00,61,R,ugm-3 (GRAV EQ),235,R,ugm-3,94,R,ugm-3,453,R,ugm-3
10-01-2000,13:00,57,R,ugm-3 (GRAV EQ),138,R,ugm-3,78,R,ugm-3,288,R,ugm-3
10-01-2000,14:00,60,R,ugm-3 (GRAV EQ),153,R,ugm-3,84,R,ugm-3,317,R,ugm-3
10-01-2000,15:00,57,R,ugm-3 (GRAV EQ),184,R,ugm-3,90,R,ugm-3,371,R,ugm-3
10-01-2000,16:00,52,R,ugm-3 (GRAV EQ),158,R,ugm-3,84,R,ugm-3,325,R,ugm-3
10-01-2000,17:00,44,R,ugm-3 (GRAV EQ),183,R,ugm-3,92,R,ugm-3,371,R,ugm-3
10-01-2000,18:00,35,R,ugm-3 (GRAV EQ),155,R,ugm-3,86,R,ugm-3,323,R,ugm-3
10-01-2000,19:00,31,R,ugm-3 (GRAV EQ),153,R,ugm-3,84,R,ugm-3,317,R,ugm-3
10-01-2000,20:00,31,R,ugm-3 (GRAV EQ),135,R,ugm-3,84,R,ugm-3,290,R,ugm-3
10-01-2000,21:00,29,R,ugm-3 (GRAV EQ),113,R,ugm-3,80,R,ugm-3,252,R,ugm-3
10-01-2000,22:00,23,R,ugm-3 (GRAV EQ),89,R,ugm-3,78,R,ugm-3,214,R,ugm-3
10-01-2000,23:00,23,R,ugm-3 (GRAV EQ),71,R,ugm-3,67,R,ugm-3,176,R,ugm-3
10-01-2000,24:00,21,R,ugm-3 (GRAV EQ),65,R,ugm-3,63,R,ugm-3,162,R,ugm-3
11-01-2000,01:00,21,R,ugm-3 (GRAV EQ),33,R,ugm-3,53,R,ugm-3,103,R,ugm-3
11-01-2000,02:00,17,R,ugm-3 (GRAV EQ),18,R,ugm-3,42,R,ugm-3,69,R,ugm-3
11-01-2000,03:00,16,R,ugm-3 (GRAV EQ),15,R,ugm-3,34,R,ugm-3,57,R,ugm-3
11-01-2000,04:00,14,R,ugm-3 (GRAV EQ),10,R,ugm-3,27,R,ugm-3,42,R,ugm-3
11-01-2000,05:00,16,R,ugm-3 (GRAV EQ),10,R,ugm-3,29,R,ugm-3,44,R,ugm-3
11-01-2000,06:00,22,R,ugm-3 (GRAV EQ),39,R,ugm-3,50,R,ugm-3,109,R,ugm-3
11-01-2000,07:00,25,R,ugm-3 (GRAV EQ),84,R,ugm-3,69,R,ugm-3,197,R,ugm-3
11-01-2000,08:00,34,R,ugm-3 (GRAV EQ),160,R,ugm-3,86,R,ugm-3,330,R,ugm-3
11-01-2000,09:00,40,R,ugm-3 (GRAV EQ),198,R,ugm-3,88,R,ugm-3,390,R,ugm-3
11-01-2000,10:00,44,R,ugm-3 (GRAV EQ),148,R,ugm-3,78,R,ugm-3,304,R,ugm-3
11-01-2000,11:00,42,R,ugm-3 (GRAV EQ),150,R,ugm-3,82,R,ugm-3,311,R,ugm-3
11-01-2000,12:00,35,R,ugm-3 (GRAV EQ),111,R,ugm-3,74,R,ugm-3,244,R,ugm-3
11-01-2000,13:00,34,R,ugm-3 (GRAV EQ),113,R,ugm-3,76,R,ugm-3,248,R,ugm-3
11-01-2000,14:00,26,R,ugm-3 (GRAV EQ),81,R,ugm-3,65,R,ugm-3,189,R,ugm-3
11-01-2000,15:00,23,R,ugm-3 (GRAV EQ),76,R,ugm-3,69,R,ugm-3,185,R,ugm-3
11-01-2000,16:00,22,R,ugm-3 (GRAV EQ),81,R,ugm-3,76,R,ugm-3,201,R,ugm-3
11-01-2000,17:00,27,R,ugm-3 (GRAV EQ),118,R,ugm-3,84,R,ugm-3,264,R,ugm-3
11-01-2000,18:00,33,R,ugm-3 (GRAV EQ),95,R,ugm-3,73,R,ugm-3,218,R,ugm-3
11-01-2000,19:00,35,R,ugm-3 (GRAV EQ),116,R,ugm-3,76,R,ugm-3,254,R,ugm-3
11-01-2000,20:00,34,R,ugm-3 (GRAV EQ),90,R,ugm-3,67,R,ugm-3,204,R,ugm-3
11-01-2000,21:00,31,R,ugm-3 (GRAV EQ),60,R,ugm-3,61,R,ugm-3,153,R,ugm-3
11-01-2000,22:00,30,R,ugm-3 (GRAV EQ),49,R,ugm-3,53,R,ugm-3,128,R,ugm-3
11-01-2000,23:00,31,R,ugm-3 (GRAV EQ),40,R,ugm-3,48,R,ugm-3,109,R,ugm-3
11-01-2000,24:00,31,R,ugm-3 (GRAV EQ),35,R,ugm-3,44,R,ugm-3,97,R,ugm-3
12-01-2000,01:00,29,R,ugm-3 (GRAV EQ),19,R,ugm-3,32,R,ugm-3,61,R,ugm-3
12-01-2000,02:00,26,R,ugm-3 (GRAV EQ),11,R,ugm-3,27,R,ugm-3,44,R,ugm-3
12-01-2000,03:00,23,R,ugm-3 (GRAV EQ),6,R,ugm-3,17,R,ugm-3,27,R,ugm-3
12-01-2000,04:00,23,R,ugm-3 (GRAV EQ),6,R,ugm-3,17,R,ugm-3,27,R,ugm-3
12-01-2000,05:00,21,R,ugm-3 (GRAV EQ),6,R,ugm-3,15,R,ugm-3,25,R,ugm-3
12-01-2000,06:00,22,R,ugm-3 (GRAV EQ),15,R,ugm-3,23,R,ugm-3,46,R,ugm-3
12-01-2000,07:00,26,R,ugm-3 (GRAV EQ),39,R,ugm-3,42,R,ugm-3,101,R,ugm-3
12-01-2000,08:00,31,R,ugm-3 (GRAV EQ),79,R,ugm-3,59,R,ugm-3,180,R,ugm-3
12-01-2000,09:00,36,R,ugm-3 (GRAV EQ),93,R,ugm-3,63,R,ugm-3,204,R,ugm-3
12-01-2000,10:00,38,R,ugm-3 (GRAV EQ),76,R,ugm-3,61,R,ugm-3,178,R,ugm-3
12-01-2000,11:00,39,R,ugm-3 (GRAV EQ),83,R,ugm-3,61,R,ugm-3,187,R,ugm-3
12-01-2000,12:00,36,R,ugm-3 (GRAV EQ),84,R,ugm-3,59,R,ugm-3,187,R,ugm-3
12-01-2000,13:00,38,R,ugm-3 (GRAV EQ),84,R,ugm-3,59,R,ugm-3,187,R,ugm-3
12-01-2000,14:00,39,R,ugm-3 (GRAV EQ),83,R,ugm-3,59,R,ugm-3,185,R,ugm-3
12-01-2000,15:00,42,R,ugm-3 (GRAV EQ),84,R,ugm-3,65,R,ugm-3,193,R,ugm-3
12-01-2000,16:00,40,R,ugm-3 (GRAV EQ),90,R,ugm-3,63,R,ugm-3,201,R,ugm-3
12-01-2000,17:00,35,R,ugm-3 (GRAV EQ),90,R,ugm-3,67,R,ugm-3,204,R,ugm-3
12-01-2000,18:00,34,R,ugm-3 (GRAV EQ),88,R,ugm-3,67,R,ugm-3,201,R,ugm-3
12-01-2000,19:00,33,R,ugm-3 (GRAV EQ),88,R,ugm-3,61,R,ugm-3,195,R,ugm-3
12-01-2000,20:00,34,R,ugm-3 (GRAV EQ),84,R,ugm-3,61,R,ugm-3,189,R,ugm-3
12-01-2000,21:00,30,R,ugm-3 (GRAV EQ),49,R,ugm-3,52,R,ugm-3,126,R,ugm-3
12-01-2000,22:00,31,R,ugm-3 (GRAV EQ),54,R,ugm-3,53,R,ugm-3,136,R,ugm-3
12-01-2000,23:00,31,R,ugm-3 (GRAV EQ),46,R,ugm-3,48,R,ugm-3,118,R,ugm-3
12-01-2000,24:00,33,R,ugm-3 (GRAV EQ),38,R,ugm-3,46,R,ugm-3,103,R,ugm-3
13-01-2000,01:00,30,R,ugm-3 (GRAV EQ),23,R,ugm-3,32,R,ugm-3,67,R,ugm-3
13-01-2000,02:00,31,R,ugm-3 (GRAV EQ),14,R,ugm-3,27,R,ugm-3,48,R,ugm-3
13-01-2000,03:00,29,R,ugm-3 (GRAV EQ),6,R,ugm-3,21,R,ugm-3,31,R,ugm-3
13-01-2000,04:00,25,R,ugm-3 (GRAV EQ),9,R,ugm-3,23,R,ugm-3,36,R,ugm-3
13-01-2000,05:00,17,R,ugm-3 (GRAV EQ),10,R,ugm-3,25,R,ugm-3,40,R,ugm-3
13-01-2000,06:00,12,R,ugm-3 (GRAV EQ),20,R,ugm-3,36,R,ugm-3,67,R,ugm-3
13-01-2000,07:00,16,R,ugm-3 (GRAV EQ),64,R,ugm-3,53,R,ugm-3,151,R,ugm-3
13-01-2000,08:00,21,R,ugm-3 (GRAV EQ),130,R,ugm-3,65,R,ugm-3,264,R,ugm-3
13-01-2000,09:00,29,R,ugm-3 (GRAV EQ),289,R,ugm-3,80,R,ugm-3,521,R,ugm-3
13-01-2000,10:00,49,R,ugm-3 (GRAV EQ),336,R,ugm-3,96,R,ugm-3,609,R,ugm-3
13-01-2000,11:00,53,R,ugm-3 (GRAV EQ),343,R,ugm-3,96,R,ugm-3,619,R,ugm-3
13-01-2000,12:00,42,R,ugm-3 (GRAV EQ),310,R,ugm-3,92,R,ugm-3,565,R,ugm-3
13-01-2000,13:00,44,R,ugm-3 (GRAV EQ),361,R,ugm-3,103,R,ugm-3,655,R,ugm-3
13-01-2000,14:00,51,R,ugm-3 (GRAV EQ),331,R,ugm-3,103,R,ugm-3,609,R,ugm-3
13-01-2000,15:00,55,R,ugm-3 (GRAV EQ),315,R,ugm-3,99,R,ugm-3,581,R,ugm-3
13-01-2000,16:00,64,R,ugm-3 (GRAV EQ),363,R,ugm-3,111,R,ugm-3,665,R,ugm-3
13-01-2000,17:00,61,R,ugm-3 (GRAV EQ),351,R,ugm-3,103,R,ugm-3,640,R,ugm-3
13-01-2000,18:00,61,R,ugm-3 (GRAV EQ),406,R,ugm-3,107,R,ugm-3,728,R,ugm-3
13-01-2000,19:00,59,R,ugm-3 (GRAV EQ),340,R,ugm-3,99,R,ugm-3,619,R,ugm-3
13-01-2000,20:00,49,R,ugm-3 (GRAV EQ),276,R,ugm-3,90,R,ugm-3,512,R,ugm-3
13-01-2000,21:00,48,R,ugm-3 (GRAV EQ),281,R,ugm-3,86,R,ugm-3,516,R,ugm-3
13-01-2000,22:00,43,R,ugm-3 (GRAV EQ),260,R,ugm-3,88,R,ugm-3,485,R,ugm-3
13-01-2000,23:00,42,R,ugm-3 (GRAV EQ),235,R,ugm-3,97,R,ugm-3,456,R,ugm-3
13-01-2000,24:00,38,R,ugm-3 (GRAV EQ),221,R,ugm-3,80,R,ugm-3,418,R,ugm-3
14-01-2000,01:00,35,R,ugm-3 (GRAV EQ),156,R,ugm-3,78,R,ugm-3,317,R,ugm-3
14-01-2000,02:00,29,R,ugm-3 (GRAV EQ),109,R,ugm-3,69,R,ugm-3,235,R,ugm-3
14-01-2000,03:00,23,R,ugm-3 (GRAV EQ),50,R,ugm-3,61,R,ugm-3,138,R,ugm-3
14-01-2000,04:00,22,R,ugm-3 (GRAV EQ),39,R,ugm-3,63,R,ugm-3,122,R,ugm-3
14-01-2000,05:00,20,R,ugm-3 (GRAV EQ),41,R,ugm-3,61,R,ugm-3,124,R,ugm-3
14-01-2000,06:00,21,R,ugm-3 (GRAV EQ),69,R,ugm-3,59,R,ugm-3,164,R,ugm-3
14-01-2000,07:00,25,R,ugm-3 (GRAV EQ),208,R,ugm-3,84,R,ugm-3,401,R,ugm-3
14-01-2000,08:00,51,R,ugm-3 (GRAV EQ),441,R,ugm-3,118,R,ugm-3,793,R,ugm-3
14-01-2000,09:00,55,R,ugm-3 (GRAV EQ),460,R,ugm-3,117,R,ugm-3,819,R,ugm-3
14-01-2000,10:00,62,R,ugm-3 (GRAV EQ),471,R,ugm-3,107,R,ugm-3,827,R,ugm-3
14-01-2000,11:00,69,R,ugm-3 (GRAV EQ),388,R,ugm-3,103,R,ugm-3,695,R,ugm-3
14-01-2000,12:00,104,R,ugm-3 (GRAV EQ),391,R,ugm-3,101,R,ugm-3,699,R,ugm-3
14-01-2000,13:00,131,R,ugm-3 (GRAV EQ),424,R,ugm-3,105,R,ugm-3,753,R,ugm-3
14-01-2000,14:00,109,R,ugm-3 (GRAV EQ),368,R,ugm-3,101,R,ugm-3,663,R,ugm-3
14-01-2000,15:00,81,R,ugm-3 (GRAV EQ),313,R,ugm-3,92,R,ugm-3,569,R,ugm-3
14-01-2000,16:00,72,R,ugm-3 (GRAV EQ),360,R,ugm-3,109,R,ugm-3,659,R,ugm-3